STARLINK-1815 (46713 NORAD) Tracking and Keplerian Element Data

This shows tracking and keplerian element data for the satellite.

Feedback or suggestion? Click here.




ElementValue
Catalog46713
NameSTARLINK-1815
Epoch Orbit181
Epoch Day330.91667824
Epoch Year2020
RAAN280.3493
Inclination53.0549
Eccentricity0.0001052
Argument of Perigee66.623
Mean Anonmoly75.2494
Mean Motion15.62778367
Decay Rate0.00012384
L11 46713U 20073AV 20330.91667824 .00012384 00000-0 14074-3 0 9991
L22 46713 53.0549 280.3493 0001052 66.6230 75.2494 15.62778367 1812

Live tracking and technical data element details for STARLINK-1815 (NORAD 46713). STARLINK-1815 can be tracked NOW for your location showing map with azimuth and elevation plus other details from your city location.

Track the satellite on the map from your city or location and see movement details for azimuth, elevation, latitude, longitude, range, height, and movement on the map or in text.







IsCatalogInMostPopularTable: catalog: 46713, numindb: 7
Update: records affected: 1



GetName: 46713 STARLINK-1815

Hit Count: updated at: Thu, 26 Nov 2020 18:41:29 GMT